Simultaneous Nadir Overpasses (SNOs) Predictions

Prediction of SNOs between LANDSAT-8 and METOP-A Satellite Orbit:

Table of predicted SNOs for the next 14.0 days since TLE Epoch: 2/2/2019
Index Date (LANDSAT-8) Time (LANDSAT-8) Lat,Lon (LANDSAT-8) SZA (LANDSAT-8 ) Date (METOP-A) Time (METOP-A) Lat,Lon (METOP-A) SZA (METOP-A ) Distance(km) Time Diff (sec)
1 02/04/2019 11:56:41 -81.44,-133.74 80.25 02/04/2019 11:56:02 -81.44,-133.77 80.27 0.65 39
2 02/04/2019 12:46:07 81.45, 33.96 99.75 02/04/2019 12:46:42 81.44, 33.87 99.75 1.62 35
3 02/07/2019 07:30:56 -81.45, -67.26 81.11 02/07/2019 07:30:16 -81.44, -67.19 81.12 1.34 40
4 02/07/2019 08:20:22 81.45, 100.42 98.89 02/07/2019 08:20:56 81.44, 100.45 98.91 0.74 34
5 02/10/2019 03:05:11 -81.43, -1.12 82.04 02/10/2019 03:04:30 -81.44, -1.02 82.04 1.79 41
6 02/10/2019 03:54:37 81.43, 166.54 97.96 02/10/2019 03:55:10 81.44, 166.61 97.99 1.40 33
7 02/12/2019 22:39:26 -81.44, 65.46 82.94 02/12/2019 22:38:44 -81.44, 65.53 82.95 1.16 42
8 02/12/2019 23:28:52 81.44,-126.90 97.05 02/12/2019 23:29:24 81.44,-126.85 97.07 0.85 32
9 02/15/2019 18:13:41 -81.45, 132.09 83.86 02/15/2019 18:12:58 -81.44, 132.06 83.89 0.89 43




NCC Satellite Simultaneous Nadir Overpasses (SNOs) Prediction Service
